This is the latest recevied weather packets stored in our database for station/object VK6WB. If no packets are shown the sender has not sent any weather packets the latest 10 day(s).
| Time | Temp. | Humidity | Pressure | Rain* | Wind** | Luminosity | Snow |
|---|---|---|---|---|---|---|---|
| 1777982405 | 16.67° C | 59% | 1022.1 hPa | 0 mm | - | 324 W/m² | - |
| 1777981805 | 16.67° C | 59% | 1022.2 hPa | 0 mm | - | 221 W/m² | - |
| 1777981204 | 16.67° C | 59% | 1022.1 hPa | 0 mm | - | 117 W/m² | - |
| 1777980605 | 17.22° C | 59% | 1022 hPa | 0 mm | - | 66 W/m² | - |
| 1777980005 | 17.22° C | 60% | 1021.9 hPa | 0 mm | - | 14 W/m² | - |
| 1777979404 | 17.22° C | 63% | 1021.9 hPa | 0 mm | - | 14 W/m² | - |
| 1777978805 | 17.22° C | 64% | 1021.7 hPa | 0 mm | - | 14 W/m² | - |
| 1777978205 | 17.78° C | 64% | 1021.7 hPa | 0 mm | - | 14 W/m² | - |
| 1777977604 | 17.78° C | 63% | 1021.6 hPa | 0 mm | - | 14 W/m² | - |
| 1777977005 | 18.33° C | 63% | 1021.4 hPa | 0 mm | - | 14 W/m² | - |
| 1777976404 | 18.33° C | 63% | 1021.3 hPa | 0 mm | - | 14 W/m² | - |
| 1777975805 | 18.33° C | 61% | 1021.3 hPa | 0 mm | - | 14 W/m² | - |
| 1777975205 | 18.89° C | 61% | 1021.2 hPa | 0 mm | - | 14 W/m² | - |
| 1777974605 | 19.44° C | 59% | 1021.1 hPa | 0 mm | - | 14 W/m² | - |
| 1777974005 | 19.44° C | 57% | 1021 hPa | 0 mm | - | 14 W/m² | - |
| 1777973405 | 20° C | 55% | 1021.1 hPa | 0 mm | - | 14 W/m² | - |
| 1777972804 | 20° C | 54% | 1021 hPa | 0 mm | - | 14 W/m² | - |
| 1777972205 | 20.56° C | 53% | 1020.9 hPa | 0 mm | - | 14 W/m² | - |
| 1777971604 | 21.67° C | 50% | 1020.9 hPa | 0 mm | - | 14 W/m² | - |
| 1777971005 | 22.22° C | 49% | 1020.7 hPa | 0 mm | - | 14 W/m² | - |
| 1777970404 | 22.22° C | 50% | 1020.6 hPa | 0 mm | - | 14 W/m² | - |
| 1777969805 | 22.78° C | 50% | 1020.7 hPa | 0 mm | - | 14 W/m² | - |
| 1777969205 | 22.78° C | 49% | 1020.6 hPa | 0 mm | - | 14 W/m² | - |
| 1777968605 | 22.22° C | 45% | 1020.7 hPa | 0 mm | - | 14 W/m² | - |
| 1777968004 | 24.44° C | 41% | 1020.7 hPa | 0 mm | - | 65 W/m² | - |
* Rain latest hour (hover to see other rain measurements)
** Current wind speed in m/s (hover to see current wind gust speed)